When you browse on this site, cookies collect data to enhance your experience and personalize the content and advertising you see.
Visit our Privacy Policy to learn more. By continuing to use the site, you agree to this use of cookies and data.
  • In France
  • List of Countries
  • For 7 days
  • Water Temperature
  • Weather Map
  • Weather Widgets
  • user-avatar
    Login

    Hourly Weather Aylesbury

    Today, 20 August, Tuesday

    Time Temperature Precipitation Wind Pressure Humidity
    00:00 +11°C° 0 mm 3 mps 756 mmHg 90%
    01:00 +11°C° 0 mm 3 mps 756 mmHg 91%
    02:00 +11°C° 0 mm 3 mps 756 mmHg 92%
    03:00 +10°C° 0 mm 3 mps 756 mmHg 94%
    04:00 +10°C° 0 mm 3 mps 756 mmHg 93%
    05:00 +10°C° 0 mm 3 mps 756 mmHg 93%
    06:00 +10°C° 0 mm 3 mps 757 mmHg 93%
    07:00 +12°C° 0 mm 3 mps 757 mmHg 85%
    08:00 +14°C° 0 mm 3 mps 758 mmHg 78%
    09:00 +15°C° 0 mm 4 mps 758 mmHg 70%
    10:00 +17°C° 0 mm 4 mps 758 mmHg 66%
    11:00 +18°C° 0 mm 4 mps 759 mmHg 61%
    12:00 +19°C° 0 mm 5 mps 759 mmHg 56%
    13:00 +19°C° 0 mm 5 mps 759 mmHg 56%
    14:00 +19°C° 0 mm 5 mps 759 mmHg 56%
    15:00 +19°C° 0 mm 5 mps 759 mmHg 55%
    16:00 +19°C° 0 mm 4 mps 760 mmHg 60%
    17:00 +18°C° 0 mm 3 mps 760 mmHg 64%
    18:00 +17°C° 0 mm 3 mps 760 mmHg 69%
    19:00 +16°C° 0 mm 3 mps 760 mmHg 74%
    20:00 +14°C° 0 mm 3 mps 761 mmHg 79%
    21:00 +12°C° 0 mm 3 mps 761 mmHg 84%
    22:00 +13°C° 0 mm 2 mps 761 mmHg 86%
    23:00 +13°C° 0 mm 2 mps 761 mmHg 89%

    Tomorrow, 21 August, Wednesday

    Time Temperature Precipitation Wind Pressure Humidity
    00:00 +12°C° 0 mm 2 mps 761 mmHg 91%
    01:00 +12°C° 0 mm 2 mps 761 mmHg 92%
    02:00 +12°C° 0 mm 2 mps 761 mmHg 93%
    03:00 +12°C° 0 mm 2 mps 761 mmHg 94%
    04:00 +12°C° 0 mm 2 mps 761 mmHg 93%
    05:00 +12°C° 0 mm 2 mps 761 mmHg 92%
    06:00 +13°C° 0 mm 2 mps 761 mmHg 91%
    07:00 +13°C° 0 mm 3 mps 761 mmHg 85%
    08:00 +14°C° 0 mm 3 mps 761 mmHg 80%
    09:00 +17°C° 0 mm 3 mps 761 mmHg 74%
    10:00 +18°C° 0 mm 4 mps 761 mmHg 69%
    11:00 +19°C° 0 mm 4 mps 761 mmHg 65%
    12:00 +20°C° 0 mm 4 mps 761 mmHg 60%
    13:00 +20°C° 0 mm 4 mps 760 mmHg 61%
    14:00 +20°C° 0 mm 5 mps 760 mmHg 61%
    15:00 +21°C° 0 mm 5 mps 760 mmHg 62%
    16:00 +20°C° 0 mm 4 mps 760 mmHg 65%
    17:00 +19°C° 0 mm 4 mps 760 mmHg 68%
    18:00 +18°C° 0 mm 4 mps 760 mmHg 71%
    19:00 +17°C° 0 mm 4 mps 760 mmHg 74%
    20:00 +16°C° 0 mm 3 mps 760 mmHg 76%
    21:00 +14°C° 0 mm 3 mps 760 mmHg 79%
    22:00 +13°C° 0 mm 3 mps 760 mmHg 81%
    23:00 +13°C° 0 mm 3 mps 760 mmHg 83%

    Day after tomorrow, 22 August, Thursday

    Time Temperature Precipitation Wind Pressure Humidity
    00:00 +12°C° 0 mm 3 mps 760 mmHg 85%
    01:00 +12°C° 0 mm 3 mps 759 mmHg 87%
    02:00 +12°C° 0 mm 3 mps 759 mmHg 89%
    03:00 +11°C° 0 mm 3 mps 759 mmHg 91%
    04:00 +11°C° 0 mm 4 mps 759 mmHg 91%
    05:00 +11°C° 0 mm 4 mps 759 mmHg 90%
    06:00 +12°C° 0 mm 4 mps 759 mmHg 89%
    07:00 +13°C° 0 mm 4 mps 759 mmHg 85%
    08:00 +15°C° 0 mm 5 mps 759 mmHg 80%
    09:00 +17°C° 0 mm 5 mps 760 mmHg 75%
    10:00 +19°C° 0 mm 5 mps 760 mmHg 73%
    11:00 +20°C° 0 mm 5 mps 760 mmHg 71%
    12:00 +20°C° 0 mm 5 mps 760 mmHg 70%
    13:00 +21°C° 0.1 mm 5 mps 760 mmHg 66%
    14:00 +22°C° 0.1 mm 5 mps 760 mmHg 63%
    15:00 +22°C° 0.1 mm 5 mps 759 mmHg 59%
    16:00 +22°C° 0 mm 5 mps 759 mmHg 63%
    17:00 +21°C° 0 mm 4 mps 759 mmHg 67%
    18:00 +20°C° 0 mm 3 mps 759 mmHg 72%
    19:00 +19°C° 0 mm 3 mps 760 mmHg 76%
    20:00 +17°C° 0 mm 3 mps 760 mmHg 81%
    21:00 +16°C° 0 mm 3 mps 761 mmHg 86%
    22:00 +14°C° 0 mm 3 mps 760 mmHg 87%
    23:00 +15°C° 0 mm 2 mps 760 mmHg 89%

    23 August, Friday

    Time Temperature Precipitation Wind Pressure Humidity
    00:00 +15°C° 0 mm 2 mps 760 mmHg 91%
    01:00 +14°C° 0 mm 2 mps 760 mmHg 92%
    02:00 +14°C° 0 mm 2 mps 760 mmHg 92%
    03:00 +14°C° 0 mm 2 mps 760 mmHg 93%
    04:00 +14°C° 0 mm 2 mps 760 mmHg 93%
    05:00 +14°C° 0 mm 2 mps 760 mmHg 93%
    06:00 +14°C° 0 mm 2 mps 760 mmHg 93%
    07:00 +16°C° 0 mm 2 mps 760 mmHg 87%
    08:00 +18°C° 0 mm 2 mps 760 mmHg 81%
    09:00 +19°C° 0 mm 2 mps 761 mmHg 75%
    10:00 +20°C° 0 mm 2 mps 761 mmHg 70%
    11:00 +21°C° 0 mm 2 mps 760 mmHg 65%
    12:00 +23°C° 0 mm 1 mps 760 mmHg 60%
    13:00 +24°C° 0 mm 1 mps 760 mmHg 58%
    14:00 +24°C° 0 mm 1 mps 760 mmHg 56%
    15:00 +25°C° 0 mm 1 mps 759 mmHg 54%
    16:00 +24°C° 0 mm 1 mps 759 mmHg 58%
    17:00 +24°C° 0 mm 1 mps 759 mmHg 61%
    18:00 +23°C° 0 mm 1 mps 759 mmHg 65%
    19:00 +22°C° 0 mm 1 mps 759 mmHg 69%
    20:00 +21°C° 0 mm 1 mps 759 mmHg 73%
    21:00 +19°C° 0 mm 1 mps 759 mmHg 76%
    22:00 +19°C° 0 mm 1 mps 759 mmHg 78%
    23:00 +18°C° 0 mm 1 mps 759 mmHg 80%

    24 August, Saturday

    Time Temperature Precipitation Wind Pressure Humidity
    00:00 +18°C° 0 mm 1 mps 758 mmHg 82%
    01:00 +18°C° 0 mm 1 mps 758 mmHg 82%
    02:00 +16°C° 0 mm 1 mps 758 mmHg 82%
    03:00 +16°C° 0 mm 1 mps 757 mmHg 82%
    04:00 +16°C° 0 mm 1 mps 757 mmHg 81%
    05:00 +16°C° 0 mm 1 mps 757 mmHg 80%
    06:00 +15°C° 0 mm 2 mps 757 mmHg 79%
    07:00 +17°C° 0 mm 2 mps 757 mmHg 75%
    08:00 +19°C° 0 mm 2 mps 757 mmHg 71%
    09:00 +21°C° 0 mm 2 mps 757 mmHg 67%
    10:00 +23°C° 0 mm 2 mps 757 mmHg 62%
    11:00 +24°C° 0 mm 3 mps 756 mmHg 58%
    12:00 +26°C° 0 mm 3 mps 756 mmHg 53%
    13:00 +26°C° 0 mm 2 mps 756 mmHg 51%
    14:00 +27°C° 0 mm 2 mps 755 mmHg 50%
    15:00 +27°C° 0 mm 2 mps 755 mmHg 48%
    16:00 +26°C° 0 mm 2 mps 755 mmHg 53%
    17:00 +26°C° 0 mm 2 mps 754 mmHg 57%
    18:00 +25°C° 0 mm 2 mps 754 mmHg 62%
    19:00 +23°C° 0 mm 2 mps 754 mmHg 65%
    20:00 +21°C° 0 mm 2 mps 754 mmHg 69%
    21:00 +19°C° 0 mm 2 mps 754 mmHg 72%
    22:00 +19°C° 0 mm 2 mps 754 mmHg 73%
    23:00 +20°C° 0 mm 1 mps 754 mmHg 75%

    25 August, Sunday

    Time Temperature Precipitation Wind Pressure Humidity
    00:00 +20°C° 0 mm 1 mps 753 mmHg 76%
    01:00 +19°C° 0 mm 1 mps 753 mmHg 78%
    02:00 +19°C° 0 mm 1 mps 753 mmHg 81%
    03:00 +16°C° 0 mm 0 mps 752 mmHg 83%
    04:00 +16°C° 0 mm 0 mps 752 mmHg 82%
    05:00 +16°C° 0 mm 0 mps 752 mmHg 82%
    06:00 +17°C° 0 mm 0 mps 752 mmHg 81%
    07:00 +18°C° 0 mm 0 mps 752 mmHg 75%
    08:00 +22°C° 0 mm 1 mps 752 mmHg 69%
    09:00 +24°C° 0 mm 1 mps 753 mmHg 63%
    10:00 +25°C° 0 mm 1 mps 752 mmHg 58%
    11:00 +26°C° 0 mm 2 mps 752 mmHg 54%
    12:00 +27°C° 0 mm 2 mps 752 mmHg 49%
    13:00 +27°C° 0 mm 2 mps 752 mmHg 50%
    14:00 +27°C° 0 mm 3 mps 752 mmHg 50%
    15:00 +27°C° 0 mm 3 mps 752 mmHg 51%
    16:00 +26°C° 0 mm 4 mps 753 mmHg 57%
    17:00 +25°C° 0 mm 5 mps 753 mmHg 63%
    18:00 +23°C° 0 mm 5 mps 753 mmHg 68%
    19:00 +21°C° 0 mm 5 mps 753 mmHg 69%
    20:00 +20°C° 0 mm 5 mps 754 mmHg 70%
    21:00 +17°C° 0 mm 5 mps 754 mmHg 71%
    22:00 +16°C° 0 mm 5 mps 755 mmHg 71%
    23:00 +15°C° 0 mm 5 mps 755 mmHg 72%
    Show more